Location: Unspecified
(0.0000°N, 0.0000°E)
Time: 23:51:51
(UTC+00:00)

Vanguard 2 - Pass Details

Date: 05 October 2020
Orbit: 554 x 2937 km, 32.9° (Epoch: 28 October)

Event Time Altitude Azimuth Distance (km) Brightness Sun altitude
Rises 10:53:23 0° 308° (NW) 2,706 10.2 75.4°
Reaches altitude 10° 10:55:27 10° 311° (NW) 1,841 9.5 75.9°
Maximum altitude 10:59:26 73° 35° (NE) 663 9.0 76.8°
Drops below altitude 10° 11:04:45 10° 120° (ESE) 2,421 10.4 78.0°
Sets 11:07:49 0° 122° (ESE) 3,664 11.2 78.7°
